World > North America > United States > Texas > Point Venture

Hourly Point Venture, TX Regional Weather

Feedback E-mail the Weather

Quick WX

Point Venture, TX Weather Maps

°F °C°F °C
Point Venture Weather Map
UTC Time: 8/10/2022, 20:05
Your Time:

Point Venture, TX Regional Weather

Expires:202208102100;;808484
ASUS44 KSJT 102002
RWRSJT
WEST CENTRAL TEXAS REGIONAL WEATHER ROUNDUP
NATIONAL WEATHER SERVICE SAN ANGELO TX
300 PM CDT WED AUG 10 2022

NOTE: "FAIR" INDICATES FEW OR NO CLOUDS BELOW 12,000 FEET WITH NO
SIGNIFICANT WEATHER AND/OR OBSTRUCTIONS TO VISIBILITY.


TXZ145-158-159-173-191-192-194-205-207-220-223-102100-
CENTRAL AND SOUTH CENTRAL TEXAS
  
CITY           SKY/WX    TMP DP  RH WIND       PRES   REMARKS
AUSTIN/BERGSTM MOSUNNY   98  65  33 VRB3G16   29.99F                  
WACO           LGT RAIN  78  73  84 NW23G40   30.06R                  
HILLSBORO      CLOUDY    79  71  77 CALM      30.10R                  
TEMPLE         SUNNY     97  65  34 SE10G17   30.03F                  
KILLEEN-GRAY   CLOUDY    97  61  30 SE6       30.00F                  
FORT HOOD      MOSUNNY   97  66  36 N33G39    30.05R SQUALL           
GEORGETOWN     SUNNY    100  65  31 S8        30.04F                  
LAGO VISTA     FAIR     104  62  25 SE5       30.05F                  
SAN MARCOS     SUNNY     99  66  33 S9        30.01F                  
NEW BRAUNFELS  SUNNY     99  65  32 VRB3      29.99F                  
RANDOLPH AFB   SUNNY     97  61  30 S9        29.99F                  
SAN ANTONIO    MOSUNNY   98  62  30 SE8       30.02F                  
STINSON        SUNNY    100  62  28 S12G17    29.99F                  
PLEASANTON     NOT AVBL                                               
LA GRANGE      MOSUNNY   98  65  33 NE5       29.97F                  
GIDDINGS       PTCLDY    96  66  37 SE7       30.01F                  
$$


SKY/WX - Weather  TMP - Temperature  DP - Dew Point  RH - Humidity
WIND - Wind Direction/Speed PRES - Barometric Pressure VSB - Visibility
WCI - Wind Chill Index E13G22 Wind - East Wind 13 mph/Gusts of 22 mph

Trending Headlines

Point Venture Radar Loop



Point Venture Quick Facts


National Two Day Weather Forecast


E-mail the Point Venture Weather Forecast

Voice your opinion or tell us about page issues...